EN

Hourly Weather Bolshoe Lyahovo

Today, 25 October, Sunday

Time Temperature Precipitation Wind Pressure Humidity
00:00 +7°C° 0 mm 2 mps 742 mmHg 89%
01:00 +7°C° 0.4 mm 2 mps 742 mmHg 91%
02:00 +7°C° 0.4 mm 2 mps 742 mmHg 92%
03:00 +7°C° 0.4 mm 2 mps 742 mmHg 94%
04:00 +8°C° 1.3 mm 1 mps 741 mmHg 95%
05:00 +8°C° 1.3 mm 1 mps 741 mmHg 96%
06:00 +8°C° 1.3 mm 1 mps 740 mmHg 98%
07:00 +7°C° 0.5 mm 2 mps 741 mmHg 96%
08:00 +7°C° 0.5 mm 2 mps 741 mmHg 95%
09:00 +7°C° 0.5 mm 2 mps 741 mmHg 94%
10:00 +8°C° 0 mm 3 mps 742 mmHg 90%
11:00 +8°C° 0 mm 3 mps 742 mmHg 86%
12:00 +8°C° 0 mm 3 mps 743 mmHg 82%
13:00 +9°C° 0 mm 3 mps 743 mmHg 78%
14:00 +9°C° 0 mm 3 mps 744 mmHg 75%
15:00 +9°C° 0 mm 3 mps 744 mmHg 71%
16:00 +8°C° 0 mm 3 mps 745 mmHg 76%
17:00 +8°C° 0 mm 3 mps 745 mmHg 80%
18:00 +7°C° 0 mm 3 mps 746 mmHg 84%
19:00 +5°C° 0 mm 3 mps 746 mmHg 86%
20:00 +4°C° 0 mm 3 mps 747 mmHg 88%
21:00 +4°C° 0 mm 2 mps 747 mmHg 89%
22:00 +4°C° 0 mm 2 mps 748 mmHg 90%
23:00 +4°C° 0 mm 2 mps 748 mmHg 91%

Tomorrow, 26 October, Monday

Time Temperature Precipitation Wind Pressure Humidity
00:00 +4°C° 0 mm 2 mps 748 mmHg 91%
01:00 +4°C° 0 mm 2 mps 749 mmHg 91%
02:00 +4°C° 0 mm 2 mps 749 mmHg 90%
03:00 +5°C° 0 mm 1 mps 749 mmHg 90%
04:00 +4°C° 0 mm 2 mps 750 mmHg 91%
05:00 +5°C° 0 mm 2 mps 750 mmHg 92%
06:00 +5°C° 0 mm 2 mps 750 mmHg 93%
07:00 +5°C° 0 mm 2 mps 750 mmHg 93%
08:00 +5°C° 0 mm 2 mps 751 mmHg 92%
09:00 +6°C° 0 mm 2 mps 751 mmHg 92%
10:00 +7°C° 0 mm 3 mps 751 mmHg 86%
11:00 +8°C° 0 mm 3 mps 752 mmHg 81%
12:00 +8°C° 0 mm 3 mps 752 mmHg 76%
13:00 +8°C° 0 mm 3 mps 752 mmHg 75%
14:00 +8°C° 0 mm 3 mps 752 mmHg 74%
15:00 +8°C° 0 mm 3 mps 753 mmHg 74%
16:00 +5°C° 0 mm 3 mps 753 mmHg 77%
17:00 +5°C° 0 mm 2 mps 753 mmHg 81%
18:00 +4°C° 0 mm 2 mps 754 mmHg 85%
19:00 +4°C° 0 mm 2 mps 754 mmHg 85%
20:00 +3°C° 0 mm 2 mps 755 mmHg 85%
21:00 +2°C° 0 mm 2 mps 755 mmHg 85%
22:00 +2°C° 0 mm 2 mps 755 mmHg 86%
23:00 +2°C° 0 mm 2 mps 756 mmHg 86%

Day after tomorrow, 27 October, Tuesday

Time Temperature Precipitation Wind Pressure Humidity
00:00 +1°C° 0 mm 2 mps 756 mmHg 87%
01:00 +1°C° 0 mm 2 mps 756 mmHg 88%
02:00 +1°C° 0 mm 2 mps 756 mmHg 88%
03:00 -1°C° 0 mm 2 mps 756 mmHg 88%
04:00 -1°C° 0 mm 2 mps 757 mmHg 89%
05:00 -1°C° 0 mm 2 mps 757 mmHg 89%
06:00 -1°C° 0 mm 2 mps 757 mmHg 89%
07:00 -1°C° 0 mm 2 mps 757 mmHg 86%
08:00 +1°C° 0 mm 2 mps 758 mmHg 83%
09:00 +2°C° 0 mm 2 mps 758 mmHg 80%
10:00 +3°C° 0 mm 2 mps 758 mmHg 75%
11:00 +4°C° 0 mm 2 mps 758 mmHg 71%
12:00 +5°C° 0 mm 2 mps 758 mmHg 66%
13:00 +5°C° 0 mm 2 mps 758 mmHg 67%
14:00 +5°C° 0 mm 2 mps 758 mmHg 67%
15:00 +5°C° 0 mm 2 mps 758 mmHg 68%
16:00 +4°C° 0 mm 2 mps 758 mmHg 72%
17:00 +3°C° 0 mm 2 mps 758 mmHg 76%
18:00 +2°C° 0 mm 2 mps 758 mmHg 80%
19:00 +2°C° 0 mm 2 mps 758 mmHg 80%
20:00 +2°C° 0 mm 2 mps 758 mmHg 80%
21:00 +2°C° 0 mm 2 mps 758 mmHg 81%
22:00 +2°C° 0 mm 2 mps 758 mmHg 81%
23:00 +1°C° 0 mm 2 mps 758 mmHg 81%

28 October, Wednesday

Time Temperature Precipitation Wind Pressure Humidity
00:00 0°C° 0 mm 3 mps 758 mmHg 81%
01:00 +1°C° 0 mm 2 mps 758 mmHg 82%
02:00 +1°C° 0 mm 2 mps 758 mmHg 83%
03:00 +1°C° 0 mm 2 mps 758 mmHg 83%
04:00 0°C° 0 mm 3 mps 758 mmHg 84%
05:00 0°C° 0 mm 3 mps 758 mmHg 84%
06:00 0°C° 0 mm 3 mps 758 mmHg 85%
07:00 +1°C° 0 mm 3 mps 758 mmHg 81%
08:00 +1°C° 0 mm 3 mps 758 mmHg 77%
09:00 +1°C° 0 mm 4 mps 758 mmHg 73%
10:00 +3°C° 0 mm 4 mps 758 mmHg 69%
11:00 +4°C° 0 mm 4 mps 759 mmHg 65%
12:00 +6°C° 0 mm 4 mps 759 mmHg 60%
13:00 +6°C° 0 mm 4 mps 759 mmHg 60%
14:00 +6°C° 0 mm 4 mps 758 mmHg 59%
15:00 +6°C° 0 mm 4 mps 758 mmHg 58%
16:00 +5°C° 0 mm 3 mps 758 mmHg 62%
17:00 +4°C° 0 mm 3 mps 758 mmHg 66%
18:00 +2°C° 0 mm 3 mps 758 mmHg 70%
19:00 +2°C° 0 mm 3 mps 758 mmHg 69%
20:00 +1°C° 0 mm 3 mps 758 mmHg 68%
21:00 +1°C° 0 mm 3 mps 758 mmHg 67%
22:00 +1°C° 0 mm 3 mps 758 mmHg 66%
23:00 +1°C° 0 mm 3 mps 758 mmHg 65%

29 October, Thursday

Time Temperature Precipitation Wind Pressure Humidity
00:00 0°C° 0 mm 3 mps 758 mmHg 64%
01:00 0°C° 0 mm 3 mps 758 mmHg 65%
02:00 0°C° 0 mm 3 mps 758 mmHg 66%
03:00 -1°C° 0 mm 3 mps 758 mmHg 67%
04:00 -1°C° 0 mm 3 mps 758 mmHg 68%
05:00 -1°C° 0 mm 3 mps 758 mmHg 69%
06:00 -2°C° 0 mm 3 mps 758 mmHg 70%
07:00 -1°C° 0 mm 3 mps 758 mmHg 68%
08:00 -1°C° 0 mm 4 mps 758 mmHg 65%
09:00 0°C° 0 mm 4 mps 758 mmHg 63%
10:00 +1°C° 0 mm 4 mps 758 mmHg 59%
11:00 +4°C° 0 mm 4 mps 758 mmHg 56%
12:00 +5°C° 0 mm 4 mps 758 mmHg 52%
13:00 +5°C° 0 mm 4 mps 758 mmHg 53%
14:00 +5°C° 0 mm 4 mps 757 mmHg 54%
15:00 +5°C° 0 mm 4 mps 757 mmHg 56%
16:00 +4°C° 0 mm 3 mps 757 mmHg 60%
17:00 +3°C° 0 mm 3 mps 756 mmHg 64%
18:00 +2°C° 0 mm 3 mps 756 mmHg 68%
19:00 +1°C° 0 mm 3 mps 756 mmHg 68%
20:00 +1°C° 0 mm 3 mps 756 mmHg 68%
21:00 +1°C° 0 mm 3 mps 756 mmHg 68%
22:00 +1°C° 0 mm 3 mps 756 mmHg 67%
23:00 0°C° 0 mm 4 mps 756 mmHg 65%

30 October, Friday

Time Temperature Precipitation Wind Pressure Humidity
00:00 0°C° 0 mm 4 mps 756 mmHg 64%
01:00 +1°C° 0 mm 3 mps 755 mmHg 64%
02:00 +1°C° 0 mm 3 mps 755 mmHg 65%
03:00 +1°C° 0 mm 3 mps 755 mmHg 66%
04:00 +1°C° 0 mm 3 mps 754 mmHg 67%
05:00 +1°C° 0 mm 3 mps 754 mmHg 68%
06:00 +1°C° 0 mm 3 mps 754 mmHg 69%
07:00 +2°C° 0 mm 3 mps 754 mmHg 68%
08:00 +1°C° 0 mm 4 mps 754 mmHg 67%
09:00 +1°C° 0 mm 4 mps 754 mmHg 67%
10:00 +3°C° 0 mm 4 mps 753 mmHg 65%
11:00 +4°C° 0 mm 4 mps 753 mmHg 63%
12:00 +5°C° 0 mm 4 mps 753 mmHg 62%
13:00 +5°C° 0 mm 4 mps 753 mmHg 63%
14:00 +5°C° 0 mm 3 mps 753 mmHg 65%
15:00 +5°C° 0 mm 3 mps 752 mmHg 66%
16:00 +4°C° 0 mm 3 mps 752 mmHg 72%
17:00 +4°C° 0 mm 3 mps 752 mmHg 77%
18:00 +3°C° 0 mm 3 mps 752 mmHg 82%
19:00 +2°C° 0 mm 3 mps 752 mmHg 84%
20:00 +3°C° 0 mm 2 mps 752 mmHg 85%
21:00 +3°C° 0 mm 2 mps 752 mmHg 87%
22:00 +3°C° 0 mm 2 mps 752 mmHg 88%
23:00 +3°C° 0 mm 2 mps 752 mmHg 89%
Show more